Location: Ffald-y-Brenin
(52.0833°N, 4.0000°W)
Time: 04:46:05
(UTC+00:00)

Cosmos 2369 Rocket - Pass Details

Date: 18 February 2020
Orbit: 827 x 854 km, 71.0° (Epoch: 29 March)

Event Time Altitude Azimuth Distance (km) Brightness Sun altitude
Exits shadow 04:34:44 17° 336° (NNW) 2,034 4.1 -26.8°
Maximum altitude 04:39:10 64° 55° (NE) 945 2.6 -26.2°
Drops below altitude 10° 04:44:51 10° 137° (SE) 2,482 5.0 -25.3°
Sets 04:47:19 0° 140° (SE) 3,413 5.7 -25.0°
